Weather History for Denver, CO

Change the Weather History Date:

Friday, June 21, 2013

  Actual Average (KDEN) Record (KDEN)
Temperature  
Mean Temperature 78 °F 69 °F  
Max Temperature 98 °F 84 °F 99 °F (2007)
Min Temperature 59 °F 54 °F 39 °F (2000)
Degree Days  
Heating Degree Days 0 1  
Month to date heating degree days 54  
Since 1 June heating degree days 54  
Since 1 July heating degree days 6050  
Cooling Degree Days 14 5  
Month to date cooling degree days 74  
Year to date cooling degree days 96  
Since 1 June cooling degree days 74  
Growing Degree Days 28 (Base 50)    
Moisture  
Dew Point 47 °F    
Average Humidity 55    
Maximum Humidity 88    
Minimum Humidity 6    
Precipitation  
Precipitation 0.00 in 0.05 in 0.85 in (1947)
Month to date precipitation 1.43  
Year to date precipitation 6.96  
Snow  
Snow 0.00 in - - ()
Month to date snowfall  
Since 1 June snowfall  
Since 1 July snowfall  
Snow Depth -    
Sea Level Pressure  
Sea Level Pressure 29.94 in    
Wind  
Wind Speed 6 mph (WSW)    
Max Wind Speed 9 mph    
Max Gust Speed 22 mph    
Visibility 11 miles    
Events      
T = Trace of Precipitation, MM = Missing Value Source: NWS Daily Summary

Daily Weather History Graph

Daily Weather History Graph

Search for Another Location

Airport:

Trip Planner

Search our weather history database for the weather conditions in past years. The results will help you decide how hot, cold, wet, or windy it might be!

Date:

Astronomy

Jun. 21, 2013 Rise Set
Actual Time 5:30 AM MDT 8:29 PM MDT
Civil Twilight 4:57 AM MDT 9:02 PM MDT
Nautical Twilight 4:16 AM MDT 9:44 PM MDT
Astronomical Twilight 3:27 AM MDT 10:32 PM MDT
Moon 6:43 PM MDT (6/21) 3:47 AM MDT (6/21)
Length of Visible Light 16h 05m
Length of Day
14h 59m
Waxing Gibbous, 95% of the Moon is Illuminated
Jun 21
Waxing Gibbous
Jun 23
Full
Jun 29
Last Quarter
Jul 8
New
Jul 15
First Quarter

Hourly Weather History & Observations

Time (MDT) Temp. Dew Point Humidity Pressure Visibility Wind Dir Wind Speed Gust Speed Precip Events Conditions
12:18 AM 64.4 °F 55.4 °F 73% 29.93 in 10.0 mi North 4.6 mph - N/A   Overcast
12:38 AM 62.6 °F 53.6 °F 72% 29.94 in 10.0 mi West 9.2 mph - N/A   Mostly Cloudy
12:58 AM 62.6 °F 55.4 °F 77% 29.93 in 10.0 mi WNW 6.9 mph - N/A   Overcast
1:18 AM 62.6 °F 55.4 °F 77% 29.95 in 10.0 mi Calm Calm - N/A   Scattered Clouds
1:38 AM 62.6 °F 57.2 °F 82% 29.95 in 10.0 mi WNW 8.1 mph - N/A   Scattered Clouds
1:58 AM 60.8 °F 55.4 °F 82% 29.95 in 10.0 mi West 8.1 mph - N/A   Clear
2:17 AM 60.8 °F 57.2 °F 88% 29.95 in 10.0 mi WNW 8.1 mph - N/A   Clear
2:38 AM 62.6 °F 59.0 °F 88% 29.95 in 10.0 mi West 5.8 mph - N/A   Clear
2:58 AM 60.8 °F 55.4 °F 82% 29.94 in 10.0 mi West 6.9 mph - N/A   Clear
3:18 AM 62.6 °F 55.4 °F 77% 29.95 in 10.0 mi West 8.1 mph - N/A   Clear
3:38 AM 60.8 °F 55.4 °F 82% 29.94 in 10.0 mi WNW 6.9 mph - N/A   Clear
3:58 AM 60.8 °F 53.6 °F 77% 29.93 in 10.0 mi West 8.1 mph - N/A   Clear
4:18 AM 60.8 °F 53.6 °F 77% 29.95 in 10.0 mi SW 8.1 mph - N/A   Clear
4:38 AM 60.8 °F 53.6 °F 77% 29.95 in 10.0 mi West 6.9 mph - N/A   Clear
4:58 AM 60.8 °F 53.6 °F 77% 29.96 in 10.0 mi Calm Calm - N/A   Clear
5:18 AM 59.0 °F 53.6 °F 82% 29.97 in 10.0 mi SW 6.9 mph - N/A   Clear
5:38 AM 59.0 °F 53.6 °F 82% 29.97 in 10.0 mi SSW 4.6 mph - N/A   Clear
5:58 AM 60.8 °F 51.8 °F 72% 29.98 in 10.0 mi Calm Calm - N/A   Clear
6:17 AM 60.8 °F 53.6 °F 77% 29.97 in 10.0 mi SW 5.8 mph - N/A   Clear
6:37 AM 62.6 °F 53.6 °F 72% 29.98 in 10.0 mi WSW 5.8 mph - N/A   Clear
6:46 AM 64.4 °F 51.8 °F 64% 29.98 in 10.0 mi SW 5.8 mph - N/A   Clear
8:50 AM 75.2 °F 48.2 °F 38% 29.98 in 8.0 mi WSW 8.1 mph - N/A   Clear
9:48 AM 80.6 °F 50.0 °F 34% 29.96 in 8.0 mi West 5.8 mph - N/A   Clear
10:48 AM 86.0 °F 41.0 °F 20% 29.95 in 10.0 mi SW 6.9 mph - N/A   Clear
11:55 AM 91.4 °F 21.2 °F 8% 29.93 in 10.0 mi South 8.1 mph 17.3 mph N/A   Partly Cloudy
12:52 PM 93.2 °F 21.2 °F 7% 29.92 in 20.0 mi WSW 5.8 mph - N/A   Partly Cloudy
1:50 PM 95.0 °F 19.4 °F 6% 29.89 in 20.0 mi WSW 8.1 mph - N/A   Scattered Clouds
2:50 PM 96.8 °F 19.4 °F 6% 29.87 in 20.0 mi East 5.8 mph 21.9 mph N/A   Scattered Clouds
3:50 PM 98.6 °F 19.4 °F 6% 29.85 in 20.0 mi South 4.6 mph - N/A   Mostly Cloudy
4:47 PM 91.4 °F 24.8 °F 9% 29.84 in 20.0 mi NNE 8.1 mph - N/A   Mostly Cloudy
9:19 PM 71.6 °F 48.2 °F 43% 29.90 in 10.0 mi ESE 4.6 mph - N/A   Clear
9:38 PM 71.6 °F 48.2 °F 43% 29.91 in 10.0 mi ESE 5.8 mph - N/A   Clear
9:58 PM 71.6 °F 46.4 °F 41% 29.92 in 10.0 mi ESE 6.9 mph - N/A   Clear
10:18 PM 73.4 °F 44.6 °F 36% 29.93 in 10.0 mi ESE 4.6 mph - N/A   Scattered Clouds
10:37 PM 71.6 °F 46.4 °F 41% 29.94 in 10.0 mi WSW 4.6 mph - N/A   Scattered Clouds
10:58 PM 73.4 °F 44.6 °F 36% 29.93 in 10.0 mi East 5.8 mph - N/A   Clear
11:18 PM 71.6 °F 42.8 °F 35% 29.95 in 10.0 mi ESE 3.5 mph - N/A   Clear
11:37 PM 69.8 °F 44.6 °F 40% 29.96 in 10.0 mi NNE 5.8 mph - N/A   Clear
11:58 PM 69.8 °F 46.4 °F 43% 29.96 in 10.0 mi NNE 5.8 mph - N/A   Clear